Northeast Philadelphia, PA

9:15 PM EST on November 21, 2019 (GMT -0500)
Northeast Philadelphia

Weather History for KPNE - October, 2019

Change the Weather History Date:

Sunday, October 20, 2019

  Actual Average Record
Temperature  
Mean Temperature 50 °F -  
Max Temperature 55 °F 61 °F 79 °F (2016)
Min Temperature 45 °F 42 °F 36 °F (2008)
Degree Days  
Heating Degree Days 15    
Moisture  
Dew Point 49 °F    
Average Humidity 84    
Maximum Humidity 90    
Minimum Humidity 77    
Precipitation  
Precipitation 0.48 in - - ()
Sea Level Pressure  
Sea Level Pressure 29.99 in    
Wind  
Wind Speed 6 mph ()    
Max Wind Speed 16 mph    
Max Gust Speed -    
Visibility 7.4 miles    
Events Rain    
Averages and records for this station are not official NWS values.
T = Trace of Precipitation, MM = Missing Value Source: Averaged Metar Reports

Daily Weather History Graph

Daily Weather History Graph

Search for Another Location

Airport or City:

Astronomy

Oct. 20, 2019 Rise Set
Actual Time 7:15 AM EDT 6:13 PM EDT
Civil Twilight 6:48 AM EDT 6:40 PM EDT
Nautical Twilight 6:16 AM EDT 7:12 PM EDT
Astronomical Twilight 5:45 AM EDT 7:43 PM EDT
Moon 11:19 PM EDT (10/20) 1:41 PM EDT (10/20)
Length of Visible Light 11h 52m
Length of Day
10h 57m
Waning Gibbous, 59% of the Moon is Illuminated
Oct 20
Waning Gibbous
Oct 21
Last Quarter
Oct 27
New
Nov 4
First Quarter
Nov 12
Full

Hourly Weather History & Observations

Time (EDT) Temp. Windchill Dew Point Humidity Pressure Visibility Wind Dir Wind Speed Gust Speed Precip Events Conditions
12:54 AM 50.0 °F - 43.0 °F 77% 30.05 in 10.0 mi Calm Calm - N/A   Clear
1:54 AM 48.9 °F - 43.0 °F 80% 30.05 in 10.0 mi Calm Calm - N/A   Clear
2:54 AM 48.9 °F - 43.0 °F 80% 30.04 in 10.0 mi Calm Calm - N/A   Clear
3:54 AM 46.0 °F 44.8 °F 42.1 °F 86% 30.02 in 10.0 mi ENE 3.5 mph - N/A   Clear
4:54 AM 45.0 °F 41.2 °F 41.0 °F 86% 30.01 in 9.0 mi NE 6.9 mph - N/A   Clear
5:54 AM 46.9 °F - 43.0 °F 86% 30.02 in 8.0 mi NE 4.6 mph - N/A   Clear
6:54 AM 48.0 °F - 44.1 °F 86% 30.02 in 8.0 mi ENE 3.5 mph - N/A   Partly Cloudy
7:54 AM 48.9 °F - 45.0 °F 86% 30.04 in 8.0 mi NE 3.5 mph - N/A   Clear
8:54 AM 50.0 °F - 46.0 °F 86% 30.04 in 9.0 mi NE 4.6 mph - N/A   Scattered Clouds
9:54 AM 53.1 °F - 46.9 °F 80% 30.04 in 10.0 mi NE 5.8 mph - N/A   Mostly Cloudy
10:54 AM 55.0 °F - 48.0 °F 77% 30.05 in 8.0 mi NE 4.6 mph - 0.00 in Rain Light Rain
11:54 AM 55.9 °F - 48.9 °F 77% 30.05 in 8.0 mi NNE 3.5 mph - 0.02 in Rain Light Rain
12:54 PM 55.9 °F - 51.1 °F 84% 30.04 in 2.5 mi NNE 5.8 mph - 0.06 in Rain Rain
1:03 PM 55.9 °F - 51.1 °F 84% 30.03 in 3.0 mi NNE 8.1 mph - 0.02 in Rain Rain
1:54 PM 55.9 °F - 51.1 °F 84% 30.00 in 4.0 mi NE 10.4 mph - 0.07 in Rain Light Rain
2:24 PM 55.9 °F - 51.1 °F 84% 29.99 in 4.0 mi NE 12.7 mph - 0.04 in Rain Light Rain
2:54 PM 55.9 °F - 52.0 °F 87% 29.97 in 4.0 mi NE 9.2 mph - 0.08 in Rain Light Rain
3:54 PM 55.9 °F - 52.0 °F 87% 29.97 in 3.0 mi NE 11.5 mph - 0.09 in Rain Rain
4:00 PM 55.9 °F - 52.0 °F 87% 29.97 in 3.0 mi ENE 10.4 mph - 0.01 in Rain Rain
4:54 PM 55.9 °F - 52.0 °F 87% 29.96 in 5.0 mi NE 12.7 mph - 0.09 in Rain Light Rain
5:54 PM 55.9 °F - 51.1 °F 84% 29.96 in 9.0 mi NE 12.7 mph - 0.01 in   Overcast
6:20 PM 55.9 °F - 51.1 °F 84% 29.96 in 10.0 mi NE 11.5 mph - N/A   Overcast
6:31 PM 55.9 °F - 51.1 °F 84% 29.95 in 10.0 mi NE 12.7 mph - N/A   Overcast
6:54 PM 55.9 °F - 51.1 °F 84% 29.96 in 10.0 mi NE 16.1 mph - N/A   Overcast
7:01 PM 55.9 °F - 51.1 °F 84% 29.96 in 10.0 mi NE 16.1 mph - N/A   Overcast
7:54 PM 55.9 °F - 51.1 °F 84% 29.96 in 7.0 mi NE 13.8 mph - 0.01 in   Overcast
8:27 PM 55.0 °F - 51.1 °F 86% 29.96 in 7.0 mi NE 13.8 mph - 0.00 in Rain Light Rain
8:38 PM 55.0 °F - 50.0 °F 83% 29.97 in 5.0 mi NE 13.8 mph - 0.00 in   Haze
8:50 PM 55.4 °F - 50.0 °F 82% 29.97 in 5.0 mi NE 13.8 mph - 0.00 in   Haze
8:54 PM 55.0 °F - 51.1 °F 86% 29.97 in 5.0 mi NE 12.7 mph - 0.00 in Rain Light Rain
9:24 PM 54.0 °F - 51.1 °F 90% 29.97 in 3.0 mi NE 12.7 mph - 0.02 in Rain Light Rain
9:54 PM 54.0 °F - 50.0 °F 86% 29.97 in 6.0 mi NE 13.8 mph - 0.04 in Rain Light Rain
10:06 PM 54.0 °F - 50.0 °F 86% 29.97 in 10.0 mi NE 12.7 mph - 0.00 in   Overcast
10:32 PM 54.0 °F - 50.0 °F 86% 29.97 in 10.0 mi NE 10.4 mph - 0.01 in   Overcast
10:54 PM 54.0 °F - 50.0 °F 86% 29.98 in 10.0 mi NNE 11.5 mph - 0.01 in   Overcast
11:43 PM 54.0 °F - 50.0 °F 86% 29.97 in 10.0 mi NE 10.4 mph - N/A   Overcast
11:54 PM 54.0 °F - 50.0 °F 86% 29.97 in 10.0 mi NNE 13.8 mph - N/A   Overcast